Weather History for Thermopolis, WY

Change the Weather History Date:

Monday, September 9, 2013

  Actual Average (KWRL) Record (KWRL)
Temperature  
Mean Temperature 55 °F 62 °F  
Max Temperature 62 °F 78 °F 97 °F (1998)
Min Temperature 48 °F 46 °F 30 °F (1962)
Degree Days  
Heating Degree Days 10 5  
Month to date heating degree days 31  
Since 1 July heating degree days 67  
Cooling Degree Days 0 1  
Month to date cooling degree days 19  
Year to date cooling degree days 525  
Growing Degree Days 5 (Base 50)    
Moisture  
Dew Point 46 °F    
Average Humidity 73    
Maximum Humidity 94    
Minimum Humidity 48    
Precipitation  
Precipitation 0.00 in 0.03 in 0.49 in (1989)
Month to date precipitation 0.20  
Year to date precipitation 5.65  
Sea Level Pressure  
Sea Level Pressure 30.21 in    
Wind  
Wind Speed 11 mph (NW)    
Max Wind Speed 29 mph    
Max Gust Speed 40 mph    
Visibility 10 miles    
Events Rain    
T = Trace of Precipitation, MM = Missing Value Source: NWS Daily Summary

Daily Weather History Graph

Daily Weather History Graph

Search for Another Location

Airport:

Trip Planner

Search our weather history database for the weather conditions in past years. The results will help you decide how hot, cold, wet, or windy it might be!

Date:

Astronomy

Sep. 09, 2013 Rise Set
Actual Time 6:46 AM MDT 7:33 PM MDT
Civil Twilight 6:17 AM MDT 8:02 PM MDT
Nautical Twilight 5:42 AM MDT 8:36 PM MDT
Astronomical Twilight 5:06 AM MDT 9:12 PM MDT
Moon 11:20 AM MDT (9/9) 9:42 PM MDT (9/9)
Length of Visible Light 13h 45m
Length of Day
12h 47m
Waxing Crescent, 19% of the Moon is Illuminated
Sep 9
Waxing Crescent
Sep 12
First Quarter
Sep 19
Full
Sep 26
Last Quarter
Oct 4
New

Hourly Weather History & Observations

Time (MDT) Temp. Dew Point Humidity Pressure Visibility Wind Dir Wind Speed Gust Speed Precip Events Conditions
12:15 AM 53.6 °F 44.6 °F 72% 30.18 in 10.0 mi SSW 10.4 mph - N/A   Clear
12:35 AM 53.6 °F 44.6 °F 72% 30.18 in 10.0 mi SSW 10.4 mph - N/A   Clear
12:55 AM 53.6 °F 46.4 °F 77% 30.18 in 10.0 mi SSW 11.5 mph - N/A   Clear
1:15 AM 55.4 °F 44.6 °F 67% 30.18 in 10.0 mi South 8.1 mph - N/A   Scattered Clouds
1:35 AM 55.4 °F 44.6 °F 67% 30.17 in 10.0 mi SSW 10.4 mph - N/A   Scattered Clouds
1:55 AM 53.6 °F 46.4 °F 77% 30.18 in 10.0 mi SSW 8.1 mph - N/A   Clear
2:15 AM 55.4 °F 42.8 °F 63% 30.18 in 10.0 mi SSW 6.9 mph - N/A   Clear
2:35 AM 55.4 °F 42.8 °F 63% 30.18 in 10.0 mi South 8.1 mph - N/A   Clear
2:55 AM 55.4 °F 44.6 °F 67% 30.18 in 10.0 mi South 8.1 mph - N/A   Clear
3:15 AM 55.4 °F 41.0 °F 58% 30.17 in 10.0 mi SSW 8.1 mph - N/A   Clear
3:35 AM 57.2 °F 41.0 °F 55% 30.17 in 10.0 mi SW 4.6 mph - N/A   Clear
3:55 AM 55.4 °F 41.0 °F 58% 30.17 in 10.0 mi NW 12.7 mph - N/A   Clear
4:15 AM 53.6 °F 42.8 °F 67% 30.18 in 10.0 mi NNW 13.8 mph - N/A   Clear
4:35 AM 51.8 °F 42.8 °F 71% 30.18 in 10.0 mi NW 13.8 mph - N/A   Clear
4:55 AM 51.8 °F 42.8 °F 71% 30.18 in 10.0 mi NW 16.1 mph - N/A   Clear
5:15 AM 50.0 °F 44.6 °F 82% 30.18 in 10.0 mi NW 15.0 mph - N/A   Clear
5:35 AM 50.0 °F 44.6 °F 82% 30.18 in 10.0 mi NW 11.5 mph - N/A   Clear
5:55 AM 50.0 °F 44.6 °F 82% 30.18 in 10.0 mi WNW 12.7 mph - N/A   Clear
6:15 AM 50.0 °F 44.6 °F 82% 30.18 in 10.0 mi NW 11.5 mph - N/A   Clear
6:35 AM 48.2 °F 44.6 °F 87% 30.18 in 10.0 mi WNW 10.4 mph - N/A   Clear
6:55 AM 48.2 °F 44.6 °F 87% 30.19 in 10.0 mi WNW 9.2 mph - N/A   Clear
7:15 AM 48.2 °F 44.6 °F 87% 30.19 in 10.0 mi WNW 9.2 mph - N/A   Clear
7:35 AM 48.2 °F 44.6 °F 87% 30.19 in 10.0 mi WNW 8.1 mph - N/A   Clear
7:55 AM 48.2 °F 44.6 °F 87% 30.19 in 10.0 mi NW 6.9 mph - N/A   Clear
8:15 AM 48.2 °F 46.4 °F 93% 30.20 in 10.0 mi NW 5.8 mph - N/A   Clear
8:35 AM 50.0 °F 46.4 °F 87% 30.20 in 10.0 mi WNW 4.6 mph - N/A   Clear
8:55 AM 51.8 °F 46.4 °F 82% 30.20 in 10.0 mi Calm Calm - N/A   Clear
9:15 AM 53.6 °F 46.4 °F 77% 30.20 in 10.0 mi Calm Calm - N/A   Clear
9:35 AM 53.6 °F 46.4 °F 77% 30.21 in 10.0 mi Calm Calm - N/A   Clear
9:55 AM 55.4 °F 46.4 °F 72% 30.21 in 10.0 mi Calm Calm - N/A   Clear
10:15 AM 53.6 °F 46.4 °F 77% 30.21 in 10.0 mi West 3.5 mph - N/A   Clear
10:35 AM 55.4 °F 50.0 °F 82% 30.21 in 10.0 mi ESE 5.8 mph - N/A   Scattered Clouds
10:55 AM 55.4 °F 50.0 °F 82% 30.21 in 10.0 mi East 3.5 mph - N/A   Scattered Clouds
11:15 AM 55.4 °F 50.0 °F 82% 30.21 in 10.0 mi SE 6.9 mph - N/A   Scattered Clouds
11:35 AM 59.0 °F 50.0 °F 72% 30.22 in 10.0 mi ESE 6.9 mph - N/A   Scattered Clouds
11:55 AM 59.0 °F 48.2 °F 67% 30.22 in 10.0 mi SE 9.2 mph - N/A   Scattered Clouds
12:15 PM 59.0 °F 50.0 °F 72% 30.21 in 10.0 mi ESE 9.2 mph - N/A   Clear
12:35 PM 59.0 °F 48.2 °F 67% 30.21 in 10.0 mi ESE 11.5 mph - N/A   Clear
12:55 PM 59.0 °F 48.2 °F 67% 30.21 in 10.0 mi SE 6.9 mph - N/A   Scattered Clouds
1:15 PM 59.0 °F 46.4 °F 63% 30.21 in 10.0 mi ESE 8.1 mph - N/A   Clear
1:35 PM 60.8 °F 46.4 °F 59% 30.21 in 10.0 mi ESE 3.5 mph - N/A   Clear
1:55 PM 60.8 °F 46.4 °F 59% 30.21 in 10.0 mi ESE 10.4 mph - N/A   Scattered Clouds
2:15 PM 60.8 °F 46.4 °F 59% 30.21 in 10.0 mi North 3.5 mph - N/A   Scattered Clouds
2:35 PM 62.6 °F 44.6 °F 52% 30.20 in 10.0 mi NNE 9.2 mph - N/A   Scattered Clouds
2:55 PM 60.8 °F 44.6 °F 55% 30.20 in 10.0 mi North 6.9 mph - N/A   Overcast
3:15 PM 62.6 °F 44.6 °F 52% 30.20 in 10.0 mi North 5.8 mph - N/A   Mostly Cloudy
3:35 PM 62.6 °F 42.8 °F 48% 30.20 in 10.0 mi NNW 13.8 mph 17.3 mph N/A   Mostly Cloudy
3:55 PM 60.8 °F 48.2 °F 63% 30.20 in 10.0 mi NW 15.0 mph - N/A   Overcast
4:15 PM 60.8 °F 48.2 °F 63% 30.20 in 10.0 mi NW 18.4 mph - N/A   Overcast
4:35 PM 60.8 °F 48.2 °F 63% 30.20 in 10.0 mi NNW 16.1 mph - N/A Rain Light Rain
4:55 PM 60.8 °F 46.4 °F 59% 30.20 in 10.0 mi NNW 21.9 mph - N/A   Mostly Cloudy
5:15 PM 60.8 °F 44.6 °F 55% 30.21 in 10.0 mi NNW 19.6 mph 27.6 mph N/A   Scattered Clouds
5:35 PM 59.0 °F 44.6 °F 59% 30.21 in 10.0 mi NW 26.5 mph - N/A   Mostly Cloudy
5:55 PM 55.4 °F 46.4 °F 72% 30.22 in 10.0 mi WNW 26.5 mph 40.3 mph N/A   Overcast
6:15 PM 55.4 °F 46.4 °F 72% 30.22 in 10.0 mi NW 28.8 mph - N/A Rain Rain
6:35 PM 53.6 °F 48.2 °F 82% 30.23 in 5.0 mi North 19.6 mph - N/A Rain Light Rain
6:55 PM 55.4 °F 48.2 °F 77% 30.23 in 10.0 mi NW 24.2 mph - N/A   Overcast
7:15 PM 53.6 °F 50.0 °F 88% 30.23 in 10.0 mi NW 20.7 mph - N/A   Overcast
7:35 PM 53.6 °F 50.0 °F 88% 30.24 in 10.0 mi NW 19.6 mph - N/A   Mostly Cloudy
7:55 PM 51.8 °F 50.0 °F 94% 30.24 in 10.0 mi NW 17.3 mph - N/A   Clear
8:15 PM 51.8 °F 46.4 °F 82% 30.24 in 10.0 mi NW 19.6 mph - N/A   Clear
8:35 PM 51.8 °F 48.2 °F 88% 30.26 in 10.0 mi NW 17.3 mph - N/A   Clear
8:55 PM 51.8 °F 48.2 °F 88% 30.26 in 10.0 mi NW 20.7 mph - N/A   Scattered Clouds
9:15 PM 53.6 °F 46.4 °F 77% 30.26 in 10.0 mi NW 20.7 mph - N/A   Scattered Clouds
9:35 PM 53.6 °F 46.4 °F 77% 30.26 in 10.0 mi NW 20.7 mph - N/A   Clear
9:55 PM 53.6 °F 46.4 °F 77% 30.28 in 10.0 mi NW 19.6 mph - N/A   Clear
10:15 PM 51.8 °F 46.4 °F 82% 30.28 in 10.0 mi NW 21.9 mph - N/A   Clear
10:35 PM 51.8 °F 46.4 °F 82% 30.28 in 10.0 mi NW 21.9 mph - N/A   Scattered Clouds
10:55 PM 53.6 °F 46.4 °F 77% 30.28 in 10.0 mi NW 20.7 mph - N/A   Overcast
11:15 PM 53.6 °F 44.6 °F 72% 30.29 in 10.0 mi NW 20.7 mph - N/A   Overcast
11:35 PM 53.6 °F 44.6 °F 72% 30.30 in 10.0 mi NW 20.7 mph - N/A   Overcast
11:55 PM 53.6 °F 44.6 °F 72% 30.30 in 10.0 mi NW 20.7 mph - N/A   Overcast